Home > Weather > Mosbach > Past weeks

Flag for Germany Past Weather in Mosbach, Baden-Württemberg, Germany — Yesterday and Last 2 Weeks

Now
72 °F

Partly sunny.


Feels Like: 69 °F
Forecast: 54 / 70 °F
Wind: 8 mph from Southeast

Location: Mannheim City

Current Time: Jun 25, 2016 at 12:38:43 PM

Latest Report: Jun 25, 2016 at 11:50 AM


Visibility: N/A

Pressure: 29.92 "Hg

Humidity: 88%

Dew Point: 68 °F

Location of MosbachLocation

Past Weather in Mosbach — Graph

°F

Mosbach Temperature Yesterday

Maximum temperature yesterday: 91 °F (at 3:20 PM)
Minimum temperature yesterday: 73 °F (at 5:50 AM)
Average temperature yesterday: 83 °F

High & Low Weather Summary for the Past Weeks

 TemperatureHumidityPressure
High93 °F (Jun 23, 5:50 PM)100% (Jun 12, 7:50 AM)30.24 "Hg (Jun 12, 7:50 AM)
Low52 °F (Jun 20, 5:20 AM)29% (Jun 10, 5:50 PM)29.53 "Hg (Jun 14, 2:20 PM)
Average68 °F72%29.90 "Hg
* Reported Jun 10 11:20 AM — Jun 25 11:20 AM, Mosbach, Weather by CustomWeather, © 2016

Note: Actual official high and low records may vary slightly from our data, if they occured in-between our weather recording intervals... More about our weather records

Advertising

Mosbach Weather History for the Previous 24 Hours

Scroll right to see more
 ConditionsComfort  
Time TempWeatherWind HumidityBarometerVisibility
11:20 AM
Sat, Jun 25
72 °FBroken clouds.8 mph88%29.92 "HgN/A
10:50 AM70 °FBroken clouds.8 mph94%29.95 "HgN/A
10:20 AM68 °FPartly sunny.7 mph94%29.95 "HgN/A
9:50 AM68 °FBroken clouds.2 mph100%29.95 "HgN/A
9:20 AM66 °FLight rain. Broken clouds.6 mph100%29.92 "HgN/A
8:50 AM66 °FLight rain. Partly sunny.5 mph100%29.92 "HgN/A
8:20 AM66 °FLight rain. Broken clouds.5 mph100%29.92 "HgN/A
7:50 AM66 °FBroken clouds.7 mph100%29.92 "HgN/A
7:20 AM66 °FLight rain. Broken clouds.5 mph100%29.95 "HgN/A
8:50 PM
Fri, Jun 24
79 °FSunny.9 mph70%29.98 "Hg10 mi
8:20 PM81 °FPassing clouds.9 mph66%29.98 "HgN/A
7:50 PM81 °FPassing clouds.9 mph66%29.98 "HgN/A
7:20 PM82 °FPassing clouds.7 mph62%29.98 "HgN/A
6:50 PM82 °FThundershowers. Scattered clouds.8 mph62%29.98 "HgN/A
6:20 PM84 °FPassing clouds.7 mph55%29.98 "HgN/A
5:50 PM86 °FPassing clouds.10 mph52%29.98 "HgN/A
5:20 PM86 °FPassing clouds.9 mph52%29.98 "HgN/A
4:50 PM88 °FPassing clouds.9 mph46%29.98 "HgN/A
4:20 PM86 °FPassing clouds.10 mph49%29.98 "HgN/A
3:50 PM86 °FPassing clouds.13 mph49%29.98 "HgN/A
3:20 PM91 °FSunny.5 mph41%29.98 "Hg10 mi
2:50 PM90 °FPassing clouds.8 mph43%29.98 "HgN/A
2:20 PM90 °FPassing clouds.7 mph41%29.98 "HgN/A
1:50 PM90 °FPassing clouds.9 mph38%30.01 "HgN/A
1:20 PM88 °FFog.9 mph43%30.01 "HgN/A
12:50 PM88 °FPassing clouds.7 mph46%30.01 "HgN/A
12:20 PM86 °FPassing clouds.6 mph46%30.01 "HgN/A
Weather by CustomWeather, © 2016

See weather overviewHow to use our weather pages